COSMOS 886 DEB, 14800

Orbit data source: Space-Track

COSMOS 886 DEB, 14800 is space debris in LEO originally from a launch on Mon, 27 Dec 1976 UTC launched from the Tyuratam Missile And Space Complex (TTMTR). Debris objects in space refer to the collection of defunct objects orbiting the Earth. Examples of debris include non-operational satellites, rocket bodies, and fragments generated from explosions, collisions, or faulty payload assembly.

Loading next visibility...
Identifier
14800, 1976-126BS
Orbit
LEO
Country
Flag of CISCIS
Related business
Manufacturer
Unknown
Mission
Spacecraft
Bus & Motor
Unknown
Mass
Unknown
Launch date (UTC)
1976-12-27 (49 years ago)
Launch vehicle
Unknown
Launch site
Tyuratam Missile And Space Complex (TTMTR)
Object type
Payload
Rocket body
Debris
Shape & HBR
Unknown shape, 0.1 m
Radar Cross Section
Medium (>0.1 m² and <1 m²)

Expand to show TLE details & history
Last TLE update: 1 day ago

TLE from 1 day ago
0 COSMOS 886 DEB
1 14800U 76126BS  26174.84264186  .00001010  00000-0  14952-1 0  9998
2 14800  65.7547  33.1331 0612847  85.4729 301.3357 11.50927143827569
Epoch: 2026-06-23T20:13Z
TLE epoch observation values (Epoch: 2026-06-23T20:13:24.256Z)
Latitude
18.7004°
Longitude
-173.50037°
Altitude
1,669.295 km
Speed
7.142 km/s
True Right ascension
02h 47m 26s
True Declination
18° 36' 29"
Sunlit
Object was in daylight at epoch
Visualization orbit readout
Latitude
Unknown
Longitude
Unknown
Altitude
Unknown
Speed
Unknown
Apparent Right ascension
Unknown
Apparent Declination
Unknown
Sunlit
N/A
Visualization observer readout
Local Sidereal Time
11:25:27
Azimuth
Unknown
Elevation
Unknown
Doppler factor
Unknown
Orbital elements
Apogee altitude
2,414.779 km
Perigee altitude
1,399.272 km
Semi-major axis
8,285.162 km
Eccentricity
0.06128
Inclination
65.7547°
RAAN
33.1331°
Arg. of periapsis
85.4729°
True anomaly
295.10129°
Mean anomaly
301.3357°
Eccentric anomaly
298.24236°
Mean motion
2.87801 °/min
Orbital period
125.09 mins
BSTAR
0.014952
Loading maneuver chart data...
Computing Atmospheric mass density...

Documentation

Showing up to 5 results
|